Location: Camp Crooked Creek
(37.9149°N, 85.6607°W)
Time: 18:03:50
(UTC-04:00)

Lacrosse 4 - Visible Passes

Search period start: 25 July 2016 00:00
Search period end: 04 August 2016 00:00
Orbit: 673 x 680 km, 68.0° (Epoch: 25 February)

Date Brightness Start Highest point End Pass type
(mag) Time Alt. Az. Time Alt. Az. Time Alt. Az.
25 Jul 4.4 00:42:09 11° ENE 00:42:09 11° ENE 00:42:17 10° ENE visible
25 Jul 3.3 02:20:26 31° NNW 02:20:26 31° NNW 02:23:35 10° N visible
26 Jul 3.6 01:16:13 25° NE 01:16:13 25° NE 01:18:17 10° NNE visible
26 Jul 4.1 02:54:30 14° NW 02:54:46 15° NW 02:57:25 10° NNW visible
27 Jul 3.4 01:50:15 31° NNW 01:50:15 31° NNW 01:53:14 10° N visible
28 Jul 3.6 00:45:57 24° NE 00:45:57 24° NE 00:47:54 10° NNE visible
28 Jul 4.2 02:24:13 15° NW 02:24:22 15° NW 02:27:08 10° NNW visible
29 Jul 3.4 01:19:51 32° NNW 01:19:51 32° NNW 01:22:54 10° NNE visible
30 Jul 3.4 00:15:26 26° NE 00:15:26 26° NE 00:17:31 10° NNE visible
30 Jul 4.2 01:53:41 15° NW 01:53:58 16° NW 01:56:51 10° NNW visible
30 Jul 4.2 23:10:56 10° ENE 23:10:56 10° ENE 23:10:58 10° ENE visible
31 Jul 3.2 00:49:11 35° NNW 00:49:11 35° NNW 00:52:33 10° NNE visible
31 Jul 3.0 23:44:33 31° NE 23:44:33 31° NE 23:47:09 10° NNE visible
01 Aug 4.2 01:22:48 16° WNW 01:23:35 16° NW 01:26:33 10° N visible
01 Aug 3.8 22:39:48 13° ENE 22:39:48 13° ENE 22:40:31 10° ENE visible
02 Aug 2.8 00:18:01 43° NW 00:18:01 43° NW 00:22:11 10° NNE visible
02 Aug 2.1 23:13:02 48° ENE 23:13:02 48° ENE 23:16:46 10° NE visible
03 Aug 4.3 00:51:14 13° WNW 00:53:11 17° NW 00:56:16 10° N visible
03 Aug 3.3 22:07:43 17° E 22:07:43 17° E 22:10:03 10° ENE visible
03 Aug 2.7 23:45:54 36° WSW 23:47:14 45° WNW 23:51:50 10° NNE visible
